GW4603 Weather Reports


time (UTC)temp
C
wind
direction
speed
KPH
gust
KPH
rain 1hr
cm
rain 24hr
cm
rain mn
cm
humidity
%
barometer
mb
20260510205212 22 327 3.2 9.7 0.00 0.00 0.00 45 1016.1
20260510204709 22 306 3.2 9.7 0.00 0.00 0.00 45 1016.3
20260510204206 22 318 17.7 25.7 0.00 0.00 0.00 43 1016.4
20260510203703 22 243 0.0 9.7 0.00 0.00 0.00 50 1016.6
20260510203200 22 283 4.8 14.5 0.00 0.00 0.00 46 1016.5
20260510202659 22 318 8.0 9.7 0.00 0.00 0.00 47 1016.7
20260510202154 22 263 3.2 6.4 0.00 0.00 0.00 46 1016.4
20260510201652 22 338 4.8 4.8 0.00 0.00 0.00 47 1016.7
20260510201149 21 314 3.2 6.4 0.00 0.00 0.00 50 1016.8
20260510200645 21 314 4.8 4.8 0.00 0.00 0.00 49 1016.7
20260510200143 21 314 0.0 3.2 0.00 0.00 0.00 49 1016.7
20260510195640 20 338 0.0 1.6 0.00 0.00 0.00 50 1016.7
20260510195137 20 302 1.6 6.4 0.00 0.00 0.00 50 1017.0
20260510194636 20 83 3.2 4.8 0.00 0.00 0.00 52 1017.1
20260510194133 20 49 1.6 6.4 0.00 0.00 0.00 52 1017.1
20260510193628 20 262 0.0 6.4 0.00 0.00 0.00 52 1017.0
20260510193124 21 231 1.6 6.4 0.00 0.00 0.00 49 1017.2
20260510192619 21 65 4.8 14.5 0.00 0.00 0.00 52 1017.0
20260510192116 21 299 1.6 3.2 0.00 0.00 0.00 51 1017.1
20260510191611 21 319 0.0 4.8 0.00 0.00 0.00 49 1016.8
20260510191108 21 317 4.8 9.7 0.00 0.00 0.00 48 1016.8
20260510190606 22 288 6.4 12.9 0.00 0.00 0.00 47 1017.0
20260510190103 22 297 4.8 9.7 0.00 0.00 0.00 47 1016.7
20260510185559 22 94 3.2 9.7 0.00 0.00 0.00 48 1016.7
20260510185057 21 210 4.8 6.4 0.00 0.00 0.00 49 1016.8
20260510184554 21 326 1.6 11.3 0.00 0.00 0.00 48 1016.7
20260510184049 21 325 1.6 12.9 0.00 0.00 0.00 47 1016.7
20260510183545 22 322 4.8 9.7 0.00 0.00 0.00 46 1016.5
20260510183041 22 335 4.8 9.7 0.00 0.00 0.00 47 1016.6
20260510182538 23 245 3.2 16.1 0.00 0.00 0.00 48 1016.6
20260510182032 23 224 12.9 14.5 0.00 0.00 0.00 43 1016.5
20260510181531 22 160 6.4 17.7 0.00 0.00 0.00 44 1016.7
20260510181026 22 337 4.8 25.7 0.00 0.00 0.00 46 1016.8
20260510180523 22 242 3.2 12.9 0.00 0.00 0.00 46 1016.7
20260510180021 23 228 6.4 9.7 0.00 0.00 0.00 46 1016.7
20260510175516 22 152 14.5 16.1 0.00 0.00 0.00 45 1016.8
20260510175012 23 332 6.4 9.7 0.00 0.00 0.00 46 1016.8
20260510174510 22 263 6.4 11.3 0.00 0.00 0.00 44 1017.1
20260510174007 22 223 6.4 11.3 0.00 0.00 0.00 46 1016.7
20260510173502 22 350 4.8 20.9 0.00 0.00 0.00 45 1017.0
20260510172959 22 329 8.0 12.9 0.00 0.00 0.00 46 1017.2
20260510172455 22 323 6.4 11.3 0.00 0.00 0.00 48 1017.1
20260510171952 22 341 4.8 6.4 0.00 0.00 0.00 44 1017.0
20260510171449 22 268 8.0 9.7 0.00 0.00 0.00 47 1017.3
20260510170945 22 303 6.4 14.5 0.00 0.00 0.00 48 1017.2
20260510170442 22 310 1.6 6.4 0.00 0.00 0.00 53 1017.4
20260510165938 22 147 8.0 11.3 0.00 0.00 0.00 52 1017.5
20260510165434 22 305 3.2 12.9 0.00 0.00 0.00 48 1017.3
20260510164931 22 195 1.6 11.3 0.00 0.00 0.00 52 1017.4
20260510164428 21 330 4.8 12.9 0.00 0.00 0.00 49 1017.5
20260510163922 21 308 4.8 9.7 0.00 0.00 0.00 50 1017.5
20260510163419 21 85 1.6 4.8 0.00 0.00 0.00 52 1017.7
20260510162919 21 320 9.7 14.5 0.00 0.00 0.00 49 1017.5
20260510162417 21 1 1.6 12.9 0.00 0.00 0.00 51 1017.5
20260510161912 22 240 0.0 6.4 0.00 0.00 0.00 55 1017.7
20260510161408 20 3 1.6 4.8 0.00 0.00 0.00 51 1017.7
20260510160906 20 231 8.0 20.9 0.00 0.00 0.00 50 1017.8
20260510160403 20 300 3.2 6.4 0.00 0.00 0.00 52 1017.8
20260510155901 20 314 14.5 17.7 0.00 0.00 0.00 50 1017.8
20260510155359 20 329 3.2 17.7 0.00 0.00 0.00 52 1017.8
20260510154854 20 88 3.2 6.4 0.00 0.00 0.00 53 1017.7
20260510154351 20 266 12.9 20.9 0.00 0.00 0.00 53 1017.8
20260510153845 20 330 4.8 11.3 0.00 0.00 0.00 54 1017.8
20260510153341 20 349 3.2 17.7 0.00 0.00 0.00 55 1017.8
20260510152838 20 271 3.2 14.5 0.00 0.00 0.00 58 1017.6
20260510152336 19 178 6.4 12.9 0.00 0.00 0.00 56 1017.7
20260510151831 20 146 6.4 14.5 0.00 0.00 0.00 56 1017.7
20260510151330 20 109 3.2 11.3 0.00 0.00 0.00 59 1017.7
20260510150825 20 202 9.7 11.3 0.00 0.00 0.00 59 1017.6
20260510150321 20 222 8.0 12.9 0.00 0.00 0.00 58 1017.6
20260510145817 20 321 3.2 9.7 0.00 0.00 0.00 58 1017.7
20260510145314 20 303 4.8 6.4 0.00 0.00 0.00 58 1017.7
20260510144810 20 356 0.0 4.8 0.00 0.00 0.00 59 1017.6
20260510144308 19 324 3.2 9.7 0.00 0.00 0.00 63 1017.6
20260510143807 18 143 6.4 11.3 0.00 0.00 0.00 61 1017.5
20260510143303 18 325 1.6 3.2 0.00 0.00 0.00 63 1017.4
20260510142800 18 303 3.2 6.4 0.00 0.00 0.00 64 1017.3
20260510142257 18 344 0.0 4.8 0.00 0.00 0.00 66 1017.4
20260510141754 18 109 0.0 4.8 0.00 0.00 0.00 68 1017.3
20260510141252 18 311 4.8 4.8 0.00 0.00 0.00 68 1017.5
20260510140748 17 108 0.0 4.8 0.00 0.00 0.00 68 1017.6
20260510140243 17 313 3.2 4.8 0.00 0.00 0.00 67 1017.4
20260510135738 17 314 1.6 9.7 0.00 0.00 0.00 69 1017.4
20260510135233 16 126 6.4 6.4 0.00 0.00 0.00 69 1017.5
20260510134731 17 347 1.6 4.8 0.00 0.00 0.00 69 1017.4
20260510134228 17 43 0.0 3.2 0.00 0.00 0.00 70 1017.4
20260510133724 16 331 0.0 6.4 0.00 0.00 0.00 73 1017.6
20260510133220 16 298 6.4 6.4 0.00 0.00 0.00 70 1017.7
20260510132716 16 296 6.4 9.7 0.00 0.00 0.00 72 1017.6
20260510132214 16 238 4.8 6.4 0.00 0.00 0.00 73 1017.6
20260510131711 16 233 4.8 11.3 0.00 0.00 0.00 74 1017.5
20260510131209 15 219 0.0 6.4 0.00 0.00 0.00 74 1017.5
20260510130705 16 210 3.2 3.2 0.00 0.00 0.00 78 1017.5
20260510130202 15 217 6.4 14.5 0.00 0.00 0.00 76 1017.5
20260510125658 15 2 1.6 6.4 0.00 0.00 0.00 76 1017.6
20260510125154 15 39 0.0 0.0 0.00 0.00 0.00 80 1017.5
20260510124651 15 324 0.0 0.0 0.00 0.00 0.00 81 1017.5
20260510124148 14 55 1.6 4.8 0.00 0.00 0.00 81 1017.6
20260510123644 13 42 0.0 6.4 0.00 0.00 0.00 85 1017.5
20260510123140 12 100 1.6 3.2 0.00 0.00 0.00 89 1017.2
20260510122636 11 80 3.2 4.8 0.00 0.00 0.00 99 1017.4
20260510122132 10 277 0.0 3.2 0.00 0.00 0.00 99 1017.4
20260510121629 9 53 0.0 0.0 0.00 0.00 0.00 99 1017.2
20260510121126 8 308 0.0 0.0 0.00 0.00 0.00 99 1017.2
20260510120624 8 346 0.0 0.0 0.00 0.00 0.00 99 1017.2
20260510120119 7 346 0.0 0.0 0.00 0.00 0.00 99 1017.2
20260510115616 7 346 0.0 0.0 0.00 0.00 0.00 99 1016.8
20260510115114 6 345 0.0 0.0 0.00 0.00 0.00 99 1017.0
20260510114609 6 347 0.0 1.6 0.00 0.00 0.00 99 1017.0
20260510114106 6 337 0.0 0.0 0.00 0.00 0.00 99 1016.7
20260510113601 5 337 0.0 0.0 0.00 0.00 0.00 99 1016.7
20260510113059 5 289 0.0 0.0 0.00 0.00 0.00 99 1016.6
20260510112555 5 289 0.0 0.0 0.00 0.00 0.00 99 1016.5
20260510112052 5 289 0.0 0.0 0.00 0.00 0.00 99 1016.5
20260510111548 5 290 0.0 0.0 0.00 0.00 0.00 99 1016.6
20260510111044 5 290 0.0 0.0 0.00 0.00 0.00 99 1016.4
20260510110540 5 288 0.0 0.0 0.00 0.00 0.00 99 1016.3
20260510110037 5 289 0.0 0.0 0.00 0.00 0.00 99 1016.4
20260510105532 4 290 0.0 1.6 0.00 0.00 0.00 99 1016.3
20260510105027 4 278 0.0 0.0 0.00 0.00 0.00 99 1016.3
20260510104524 4 278 0.0 0.0 0.00 0.00 0.00 99 1016.2
20260510104020 4 278 0.0 0.0 0.00 0.00 0.00 99 1016.1
20260510103518 4 278 0.0 0.0 0.00 0.00 0.00 99 1016.2
20260510103014 4 278 0.0 0.0 0.00 0.00 0.00 99 1016.0
20260510102510 4 285 0.0 1.6 0.00 0.00 0.00 99 1016.0
20260510102006 4 262 0.0 0.0 0.00 0.00 0.00 99 1016.0
20260510101504 4 262 0.0 0.0 0.00 0.00 0.00 99 1015.7
20260510101002 4 262 0.0 0.0 0.00 0.00 0.00 99 1015.8
20260510100458 4 262 0.0 0.0 0.00 0.00 0.00 99 1015.7
20260510095954 4 262 0.0 0.0 0.00 0.00 0.00 99 1015.7
20260510095450 4 262 0.0 0.0 0.00 0.00 0.00 99 1015.6
20260510094949 4 262 0.0 0.0 0.00 0.00 0.00 99 1015.5
20260510094445 4 262 0.0 0.0 0.00 0.00 0.00 99 1015.5
20260510093941 4 262 0.0 0.0 0.00 0.00 0.00 99 1015.3
20260510093436 4 262 0.0 0.0 0.00 0.00 0.00 99 1015.7
20260510092933 4 262 0.0 0.0 0.00 0.00 0.00 99 1015.6
20260510092431 4 262 0.0 0.0 0.00 0.00 0.00 99 1015.5
20260510091930 4 262 0.0 0.0 0.00 0.00 0.00 99 1015.3
20260510091428 4 262 0.0 0.0 0.00 0.00 0.00 99 1015.2
20260510090924 4 262 0.0 0.0 0.00 0.00 0.00 99 1015.1
20260510090420 4 262 0.0 0.0 0.00 0.00 0.00 99 1015.0
20260510085916 4 262 0.0 0.0 0.00 0.00 0.00 99 1015.1
20260510085412 4 262 0.0 0.0 0.00 0.00 0.00 99 1015.0
20260510084907 4 262 0.0 0.0 0.00 0.00 0.00 99 1014.9
20260510084405 5 262 0.0 0.0 0.00 0.00 0.00 99 1015.0
20260510083901 5 262 0.0 0.0 0.00 0.00 0.00 99 1015.0
20260510083358 5 262 0.0 0.0 0.00 0.00 0.00 99 1014.9
20260510082853 5 262 0.0 0.0 0.00 0.00 0.00 99 1014.9
20260510082351 5 262 0.0 0.0 0.00 0.00 0.00 99 1014.6
20260510081849 5 262 0.0 0.0 0.00 0.00 0.00 99 1014.7
20260510081345 5 262 0.0 0.0 0.00 0.00 0.00 99 1014.7
20260510080843 5 262 0.0 0.0 0.00 0.00 0.00 99 1014.8
20260510080336 5 262 0.0 0.0 0.00 0.00 0.00 99 1014.7
20260510075834 5 262 0.0 0.0 0.00 0.00 0.00 99 1014.6
20260510075331 5 262 0.0 0.0 0.00 0.00 0.00 99 1014.6
20260510074828 5 262 0.0 0.0 0.00 0.00 0.00 99 1014.7
20260510074325 5 262 0.0 0.0 0.00 0.00 0.00 99 1014.6
20260510073821 5 262 0.0 0.0 0.00 0.00 0.00 99 1014.8
20260510073317 5 262 0.0 0.0 0.00 0.00 0.00 99 1014.6
20260510072813 5 262 0.0 0.0 0.00 0.00 0.00 99 1014.5
20260510072310 5 262 0.0 0.0 0.00 0.00 0.00 99 1014.6
20260510071807 5 262 0.0 0.0 0.00 0.00 0.00 99 1014.7
20260510071303 5 262 0.0 0.0 0.00 0.00 0.00 99 1014.7
20260510070802 5 262 0.0 0.0 0.00 0.00 0.00 99 1014.5
20260510070259 5 262 0.0 0.0 0.00 0.00 0.00 99 1014.7
20260510065758 5 262 0.0 0.0 0.00 0.00 0.00 99 1014.5
20260510065255 5 262 0.0 0.0 0.00 0.00 0.00 99 1014.5
20260510064752 5 262 0.0 0.0 0.00 0.00 0.00 99 1014.5
20260510064250 5 262 0.0 0.0 0.00 0.00 0.00 99 1014.4
20260510063745 6 262 0.0 0.0 0.00 0.00 0.00 99 1014.6
20260510063242 6 262 0.0 0.0 0.00 0.00 0.00 99 1014.5
20260510062739 6 262 0.0 0.0 0.00 0.00 0.00 99 1014.5
20260510062234 6 262 0.0 0.0 0.00 0.00 0.00 99 1014.5
20260510061730 6 262 0.0 0.0 0.00 0.00 0.00 99 1014.5
20260510061227 6 262 0.0 0.0 0.00 0.00 0.00 99 1014.3
20260510060724 6 262 0.0 0.0 0.00 0.00 0.00 99 1014.5
20260510060220 6 262 0.0 0.0 0.00 0.00 0.00 99 1014.6
20260510055717 6 262 0.0 0.0 0.00 0.00 0.00 99 1014.4
20260510055215 6 262 0.0 0.0 0.00 0.00 0.00 99 1014.7
20260510054710 6 262 0.0 0.0 0.00 0.00 0.00 99 1014.6
20260510054206 6 262 0.0 0.0 0.00 0.00 0.00 99 1014.7
20260510053706 6 262 0.0 0.0 0.00 0.00 0.00 99 1014.7
20260510053202 6 262 0.0 0.0 0.00 0.00 0.00 99 1014.6
20260510052658 6 262 0.0 0.0 0.00 0.00 0.00 99 1014.4
20260510052154 6 262 0.0 0.0 0.00 0.00 0.00 99 1014.5
20260510051650 6 262 0.0 0.0 0.00 0.00 0.00 99 1014.5
20260510051147 6 262 0.0 0.0 0.00 0.00 0.00 99 1014.7
20260510050644 6 262 0.0 0.0 0.00 0.00 0.00 99 1014.5
20260510050142 6 262 0.0 0.0 0.00 0.00 0.00 99 1014.4
20260510045638 7 262 0.0 0.0 0.00 0.00 0.00 99 1014.7
20260510045134 7 262 0.0 0.0 0.00 0.00 0.00 99 1014.6
20260510044631 7 262 0.0 0.0 0.00 0.00 0.00 99 1014.7
20260510044128 7 262 0.0 0.0 0.00 0.00 0.00 99 1014.6
20260510043624 7 263 0.0 0.0 0.00 0.00 0.00 99 1014.6
20260510043121 7 263 0.0 0.0 0.00 0.00 0.00 98 1014.5
20260510042618 7 263 0.0 0.0 0.00 0.00 0.00 98 1014.5
20260510042114 7 263 0.0 0.0 0.00 0.00 0.00 98 1014.6
20260510041606 7 263 0.0 0.0 0.00 0.00 0.00 98 1014.4
20260510041103 7 263 0.0 0.0 0.00 0.00 0.00 98 1014.3
20260510040600 7 263 0.0 0.0 0.00 0.00 0.00 98 1014.3
20260510040056 7 263 0.0 0.0 0.00 0.00 0.00 98 1014.3
20260510035552 7 263 0.0 0.0 0.00 0.00 0.00 98 1014.5
20260510035052 7 263 0.0 0.0 0.00 0.00 0.00 98 1014.5
20260510034550 8 263 0.0 0.0 0.00 0.00 0.00 98 1014.5
20260510034047 8 263 0.0 0.0 0.00 0.00 0.00 97 1014.4
20260510033543 8 263 0.0 0.0 0.00 0.00 0.00 97 1014.4
20260510033041 8 263 0.0 0.0 0.00 0.00 0.00 97 1014.4
20260510032538 8 263 0.0 0.0 0.00 0.00 0.00 97 1014.3
20260510032033 8 263 0.0 0.0 0.00 0.00 0.00 97 1014.3
20260510031527 8 263 0.0 0.0 0.00 0.00 0.00 97 1014.3
20260510031023 8 263 0.0 0.0 0.00 0.00 0.00 97 1014.4
20260510030519 8 263 0.0 0.0 0.00 0.00 0.00 96 1014.5
20260510030017 8 263 0.0 0.0 0.00 0.00 0.00 96 1014.4
20260510025514 8 263 0.0 0.0 0.00 0.00 0.00 96 1014.5
20260510025012 8 263 0.0 0.0 0.00 0.00 0.00 96 1014.5
20260510024508 8 263 0.0 0.0 0.00 0.00 0.00 96 1014.3
20260510024004 8 263 0.0 0.0 0.00 0.00 0.00 95 1014.6
20260510023500 8 263 0.0 0.0 0.00 0.00 0.00 95 1014.4
20260510022957 8 263 0.0 0.0 0.00 0.00 0.00 95 1014.4
20260510022456 9 263 0.0 0.0 0.00 0.00 0.00 94 1014.3
20260510021955 9 263 0.0 0.0 0.00 0.00 0.00 94 1014.1
20260510021453 9 263 0.0 0.0 0.00 0.00 0.00 94 1014.1
20260510020950 9 263 0.0 0.0 0.00 0.00 0.00 93 1014.0
20260510020445 9 263 0.0 0.0 0.00 0.00 0.00 93 1013.7
20260510015940 9 263 0.0 0.0 0.00 0.00 0.00 92 1013.6
20260510015436 10 263 0.0 0.0 0.00 0.00 0.00 92 1013.6
20260510014931 10 263 0.0 0.0 0.00 0.00 0.00 92 1013.5
20260510014429 10 263 0.0 0.0 0.00 0.00 0.00 91 1013.3
20260510013926 10 263 0.0 0.0 0.00 0.00 0.00 90 1013.3
20260510013420 10 263 0.0 0.0 0.00 0.00 0.00 90 1013.2
20260510012916 10 263 0.0 1.6 0.00 0.00 0.00 90 1013.1
20260510012411 10 263 0.0 0.0 0.00 0.00 0.00 89 1013.1
20260510011906 10 263 0.0 0.0 0.00 0.00 0.00 89 1013.1
20260510011401 11 263 0.0 0.0 0.00 0.00 0.00 87 1013.2
20260510010858 11 263 0.0 0.0 0.00 0.00 0.00 87 1013.0
20260510010356 11 262 0.0 0.0 0.00 0.00 0.00 87 1012.8
20260510005852 11 262 0.0 0.0 0.00 0.00 0.00 85 1013.0
20260510005348 11 262 0.0 0.0 0.00 0.00 0.00 85 1012.8
20260510004846 12 262 0.0 0.0 0.00 0.00 0.00 85 1012.7
20260510004344 12 262 0.0 0.0 0.00 0.00 0.00 82 1012.7
20260510003841 12 262 0.0 0.0 0.00 0.00 0.00 82 1012.7
20260510003338 12 262 0.0 0.0 0.00 0.00 0.00 79 1012.6
20260510002836 13 262 0.0 1.6 0.00 0.00 0.00 80 1012.6
20260510002334 13 262 0.0 0.0 0.00 0.00 0.00 77 1012.6
20260510001831 13 256 0.0 0.0 0.00 0.00 0.00 74 1012.6
20260510001329 13 255 0.0 0.0 0.00 0.00 0.00 74 1012.4
20260510000824 14 137 0.0 1.6 0.00 0.00 0.00 73 1012.3
20260510000321 15 264 0.0 1.6 0.00 0.00 0.00 69 1012.2
20260509235819 15 229 1.6 3.2 0.00 0.00 0.00 66 1012.2
20260509235315 15 183 0.0 0.0 0.00 0.00 0.00 66 1012.0
20260509234811 16 183 0.0 0.0 0.00 0.00 0.00 64 1012.2
20260509234308 16 135 0.0 0.0 0.00 0.00 0.00 63 1011.9
20260509233807 16 302 0.0 1.6 0.00 0.00 0.00 64 1012.0
20260509233303 16 233 3.2 3.2 0.00 0.00 0.00 63 1012.0
20260509232759 17 34 1.6 3.2 0.00 0.00 0.00 61 1012.1
20260509232257 17 294 3.2 4.8 0.00 0.00 0.00 60 1012.0
20260509231753 17 274 1.6 3.2 0.00 0.00 0.00 60 1012.0
20260509231250 17 157 1.6 6.4 0.00 0.00 0.00 59 1011.9
20260509230748 17 274 1.6 4.8 0.00 0.00 0.00 59 1011.8
20260509230245 17 297 1.6 4.8 0.00 0.00 0.00 58 1011.7
20260509225745 17 134 6.4 11.3 0.00 0.00 0.00 59 1011.8
20260509225241 17 338 3.2 9.7 0.00 0.00 0.00 58 1011.6
20260509224737 17 314 4.8 4.8 0.00 0.00 0.00 58 1011.9
20260509224235 17 312 3.2 6.4 0.00 0.00 0.00 58 1011.9
20260509223731 17 175 3.2 6.4 0.00 0.00 0.00 57 1011.8
20260509223228 17 294 6.4 9.7 0.00 0.00 0.00 58 1012.1
20260509222725 17 196 8.0 12.9 0.00 0.00 0.00 56 1012.0
20260509222220 17 305 4.8 11.3 0.00 0.00 0.00 56 1012.0
20260509221716 17 54 1.6 3.2 0.00 0.00 0.00 55 1012.0
20260509221213 18 350 1.6 6.4 0.00 0.00 0.00 54 1012.2
20260509220709 18 300 6.4 6.4 0.00 0.00 0.00 54 1012.0
20260509220206 18 126 3.2 4.8 0.00 0.00 0.00 54 1012.2
20260509215701 18 142 4.8 11.3 0.00 0.00 0.00 53 1012.2
20260509215158 18 275 1.6 4.8 0.00 0.00 0.00 53 1012.1
20260509214655 17 217 11.3 12.9 0.00 0.00 0.00 53 1012.1
20260509214152 17 318 0.0 0.0 0.00 0.00 0.00 54 1012.2
20260509213649 17 321 4.8 6.4 0.00 0.00 0.00 52 1011.9
20260509213144 17 91 0.0 6.4 0.00 0.00 0.00 52 1012.0
20260509212642 17 300 3.2 12.9 0.00 0.00 0.00 55 1012.2
20260509212139 18 8 1.6 11.3 0.00 0.00 0.00 51 1012.0
20260509211635 18 62 1.6 9.7 0.00 0.00 0.00 51 1012.2
20260509211132 18 321 3.2 6.4 0.00 0.00 0.00 50 1011.9
20260509210629 18 165 8.0 14.5 0.00 0.00 0.00 52 1011.9
20260509210121 17 305 3.2 6.4 0.00 0.00 0.00 54 1011.9
20260509205620 17 212 3.2 9.7 0.00 0.00 0.00 53 1011.8